| time (UTC) | temp F | wind direction | speed knots | gust knots | rain 1hr in | rain 24hr in | rain mn in | humidity % | barometer mb |
| 20260504150904 | 62 | 242 | 1.7 | 6.1 | 0.00 | 0.00 | 0.00 | 33 | 1011.9 |
| 20260504140926 | 60 | 230 | 2.6 | 7.0 | 0.00 | 0.00 | 0.00 | 36 | 1012.6 |
| 20260504081825 | 42 | 241 | 0.0 | 1.7 | 0.00 | 0.00 | 0.00 | 59 | 1012.2 |
| 20260504080904 | 42 | 241 | 0.0 | 1.7 | 0.00 | 0.00 | 0.00 | 59 | 1012.2 |
| 20260504050004 | 41 | 304 | 0.0 | 0.9 | 0.00 | 0.00 | 0.00 | 60 | 1012.6 |
| 20260504045404 | 41 | 304 | 0.0 | 0.9 | 0.00 | 0.00 | 0.00 | 60 | 1012.6 |
| 20260504044525 | 41 | 304 | 0.0 | 0.9 | 0.00 | 0.00 | 0.00 | 59 | 1012.6 |
| 20260504043604 | 41 | 304 | 0.0 | 0.9 | 0.00 | 0.00 | 0.00 | 58 | 1012.6 |
| 20260504042704 | 41 | 305 | 0.0 | 0.9 | 0.00 | 0.00 | 0.00 | 58 | 1012.6 |
| 20260504041803 | 41 | 305 | 0.0 | 0.9 | 0.00 | 0.00 | 0.00 | 57 | 1012.6 |
| 20260504040904 | 41 | 305 | 0.0 | 0.9 | 0.00 | 0.00 | 0.00 | 56 | 1012.2 |
| 20260504040025 | 41 | 305 | 0.0 | 0.9 | 0.00 | 0.00 | 0.00 | 56 | 1012.6 |
| 20260504035404 | 41 | 306 | 0.0 | 0.9 | 0.00 | 0.00 | 0.00 | 56 | 1012.6 |
| 20260504034504 | 41 | 0 | 0.0 | 0.0 | 0.00 | 0.00 | 0.00 | 55 | 1012.2 |
| 20260504033625 | 42 | 306 | 0.0 | 0.9 | 0.00 | 0.00 | 0.00 | 55 | 1012.2 |
| 20260504032704 | 42 | 306 | 0.0 | 0.9 | 0.00 | 0.00 | 0.00 | 54 | 1012.2 |
| 20260504031804 | 42 | 306 | 0.0 | 0.9 | 0.00 | 0.00 | 0.00 | 53 | 1012.2 |
| 20260504030904 | 42 | 307 | 0.0 | 0.9 | 0.00 | 0.00 | 0.00 | 53 | 1012.2 |
| 20260504030004 | 42 | 307 | 0.0 | 0.9 | 0.00 | 0.00 | 0.00 | 53 | 1012.2 |
| 20260504025404 | 42 | 0 | 0.0 | 0.0 | 0.00 | 0.00 | 0.00 | 52 | 1012.2 |
| 20260504024504 | 42 | 0 | 0.0 | 0.0 | 0.00 | 0.00 | 0.00 | 51 | 1012.2 |
| 20260504023603 | 42 | 0 | 0.0 | 0.0 | 0.00 | 0.00 | 0.00 | 51 | 1012.2 |
| 20260504022704 | 42 | 0 | 0.0 | 0.0 | 0.00 | 0.00 | 0.00 | 51 | 1012.2 |
| 20260504021803 | 43 | 307 | 0.0 | 0.9 | 0.00 | 0.00 | 0.00 | 50 | 1012.2 |
| 20260504020924 | 43 | 307 | 0.0 | 0.9 | 0.00 | 0.00 | 0.00 | 49 | 1012.2 |
| 20260504020004 | 43 | 307 | 0.0 | 0.9 | 0.00 | 0.00 | 0.00 | 49 | 1012.2 |
| 20260504015403 | 44 | 307 | 0.0 | 0.9 | 0.00 | 0.00 | 0.00 | 47 | 1012.2 |
| 20260504014503 | 44 | 307 | 0.0 | 0.9 | 0.00 | 0.00 | 0.00 | 47 | 1012.2 |
| 20260504013604 | 45 | 307 | 0.0 | 0.9 | 0.00 | 0.00 | 0.00 | 46 | 1012.2 |
| 20260504012704 | 45 | 307 | 0.0 | 0.9 | 0.00 | 0.00 | 0.00 | 46 | 1011.9 |
| 20260504011803 | 46 | 307 | 0.0 | 0.9 | 0.00 | 0.00 | 0.00 | 45 | 1011.9 |
| 20260504010903 | 46 | 0 | 0.0 | 0.0 | 0.00 | 0.00 | 0.00 | 45 | 1011.5 |
| 20260504010024 | 47 | 0 | 0.0 | 0.0 | 0.00 | 0.00 | 0.00 | 45 | 1011.5 |
| 20260504005404 | 47 | 0 | 0.0 | 0.0 | 0.00 | 0.00 | 0.00 | 45 | 1011.5 |
| 20260504004503 | 47 | 307 | 0.0 | 0.9 | 0.00 | 0.00 | 0.00 | 45 | 1011.5 |
| 20260504003603 | 47 | 307 | 0.0 | 0.9 | 0.00 | 0.00 | 0.00 | 44 | 1011.2 |
| 20260504002703 | 47 | 307 | 0.0 | 0.9 | 0.00 | 0.00 | 0.00 | 44 | 1011.2 |
| 20260504001803 | 47 | 307 | 0.0 | 0.9 | 0.00 | 0.00 | 0.00 | 43 | 1010.8 |
| 20260504000903 | 47 | 0 | 0.0 | 0.0 | 0.00 | 0.00 | 0.00 | 42 | 1010.8 |
| 20260504000004 | 48 | 0 | 0.0 | 0.0 | 0.00 | 0.00 | 0.00 | 41 | 1010.5 |
| 20260503235403 | 48 | 0 | 0.0 | 0.0 | 0.00 | 0.00 | 0.00 | 41 | 1010.5 |
| 20260503234503 | 49 | 310 | 0.0 | 0.9 | 0.00 | 0.00 | 0.00 | 39 | 1010.5 |
| 20260503233603 | 50 | 316 | 0.0 | 3.5 | 0.00 | 0.00 | 0.00 | 37 | 1010.5 |
| 20260503232703 | 50 | 325 | 0.9 | 2.6 | 0.00 | 0.00 | 0.00 | 35 | 1010.5 |
| 20260503231803 | 51 | 327 | 0.9 | 2.6 | 0.00 | 0.00 | 0.00 | 33 | 1010.5 |
| 20260503230924 | 51 | 332 | 0.9 | 7.0 | 0.00 | 0.00 | 0.00 | 32 | 1010.1 |
| 20260503230004 | 51 | 323 | 2.6 | 11.3 | 0.00 | 0.00 | 0.00 | 30 | 1010.5 |
| 20260503225403 | 52 | 312 | 1.7 | 9.6 | 0.00 | 0.00 | 0.00 | 33 | 1010.1 |
| 20260503224503 | 52 | 314 | 2.6 | 16.5 | 0.00 | 0.00 | 0.00 | 32 | 1010.1 |
| 20260503223603 | 52 | 340 | 1.7 | 16.5 | 0.00 | 0.00 | 0.00 | 31 | 1010.1 |
| 20260503222703 | 52 | 295 | 1.7 | 6.1 | 0.00 | 0.00 | 0.00 | 31 | 1010.1 |
| 20260503221803 | 52 | 313 | 1.7 | 6.1 | 0.00 | 0.00 | 0.00 | 33 | 1010.1 |
| 20260503220924 | 52 | 311 | 2.6 | 12.2 | 0.00 | 0.00 | 0.00 | 32 | 1010.1 |
| 20260503220025 | 52 | 288 | 2.6 | 12.2 | 0.00 | 0.00 | 0.00 | 30 | 1010.1 |
| 20260503215403 | 52 | 307 | 2.6 | 12.2 | 0.00 | 0.00 | 0.00 | 32 | 1010.5 |
| 20260503214503 | 52 | 307 | 2.6 | 8.7 | 0.00 | 0.00 | 0.00 | 33 | 1010.1 |
| 20260503213603 | 52 | 310 | 2.6 | 13.0 | 0.00 | 0.00 | 0.00 | 32 | 1010.1 |
| 20260503212703 | 51 | 302 | 3.5 | 13.0 | 0.00 | 0.00 | 0.00 | 32 | 1010.1 |
| 20260503211803 | 51 | 318 | 3.5 | 12.2 | 0.00 | 0.00 | 0.00 | 33 | 1009.8 |
| 20260503210903 | 52 | 313 | 2.6 | 13.9 | 0.00 | 0.00 | 0.00 | 33 | 1010.1 |
| 20260503210003 | 51 | 317 | 3.5 | 9.6 | 0.00 | 0.00 | 0.00 | 34 | 1010.1 |
| 20260503205424 | 51 | 318 | 4.3 | 9.6 | 0.00 | 0.00 | 0.00 | 33 | 1009.8 |
| 20260503204503 | 52 | 278 | 2.6 | 12.2 | 0.00 | 0.00 | 0.00 | 33 | 1010.1 |
| 20260503203624 | 51 | 300 | 4.3 | 20.0 | 0.00 | 0.00 | 0.00 | 33 | 1009.8 |
| 20260503202724 | 52 | 312 | 5.2 | 18.2 | 0.00 | 0.00 | 0.00 | 33 | 1010.1 |
| 20260503201803 | 51 | 309 | 4.3 | 14.8 | 0.00 | 0.00 | 0.00 | 33 | 1010.1 |
| 20260503200903 | 51 | 307 | 3.5 | 13.0 | 0.00 | 0.00 | 0.00 | 36 | 1009.8 |
| 20260503200003 | 51 | 317 | 4.3 | 18.2 | 0.00 | 0.00 | 0.00 | 34 | 1010.1 |
| 20260503195403 | 52 | 303 | 1.7 | 12.2 | 0.00 | 0.00 | 0.00 | 35 | 1010.1 |
| 20260503194503 | 52 | 325 | 2.6 | 11.3 | 0.00 | 0.00 | 0.00 | 34 | 1010.1 |
| 20260503193603 | 52 | 321 | 3.5 | 12.2 | 0.00 | 0.00 | 0.00 | 37 | 1010.1 |
| 20260503192704 | 52 | 321 | 2.6 | 8.7 | 0.00 | 0.00 | 0.00 | 34 | 1010.1 |
| 20260503191803 | 51 | 331 | 4.3 | 13.9 | 0.00 | 0.00 | 0.00 | 33 | 1010.1 |
| 20260503190924 | 50 | 325 | 6.1 | 18.2 | 0.00 | 0.00 | 0.00 | 33 | 1010.1 |
| 20260503190003 | 51 | 307 | 5.2 | 13.9 | 0.00 | 0.00 | 0.00 | 34 | 1010.1 |
| 20260503185403 | 50 | 312 | 4.3 | 13.0 | 0.00 | 0.00 | 0.00 | 34 | 1010.1 |
| 20260503184503 | 50 | 315 | 2.6 | 14.8 | 0.00 | 0.00 | 0.00 | 36 | 1010.1 |
| 20260503183603 | 51 | 306 | 3.5 | 12.2 | 0.00 | 0.00 | 0.00 | 34 | 1010.1 |
| 20260503182724 | 51 | 291 | 2.6 | 12.2 | 0.00 | 0.00 | 0.00 | 34 | 1010.1 |
| 20260503181803 | 51 | 306 | 3.5 | 11.3 | 0.00 | 0.00 | 0.00 | 36 | 1010.5 |
| 20260503180903 | 50 | 318 | 4.3 | 12.2 | 0.00 | 0.00 | 0.00 | 34 | 1010.1 |
| 20260503180003 | 51 | 302 | 3.5 | 16.5 | 0.00 | 0.00 | 0.00 | 34 | 1009.8 |
| 20260503175403 | 51 | 309 | 4.3 | 9.6 | 0.00 | 0.00 | 0.00 | 34 | 1010.1 |
| 20260503174503 | 51 | 308 | 5.2 | 18.2 | 0.00 | 0.00 | 0.00 | 32 | 1009.8 |
| 20260503173603 | 51 | 306 | 4.3 | 13.9 | 0.00 | 0.00 | 0.00 | 33 | 1009.8 |
| 20260503172703 | 52 | 299 | 4.3 | 16.5 | 0.00 | 0.00 | 0.00 | 32 | 1009.8 |
| 20260503171824 | 51 | 305 | 4.3 | 15.6 | 0.00 | 0.00 | 0.00 | 35 | 1009.8 |
| 20260503170924 | 50 | 318 | 3.5 | 12.2 | 0.00 | 0.00 | 0.00 | 36 | 1010.1 |